Glens Falls, NY

4:49 PM EST on December 06, 2019 (GMT -0500)
Bennett Memorial

Weather History for KGFL - October, 2019

Change the Weather History Date:

Tuesday, October 8, 2019

  Actual Average Record
Temperature  
Mean Temperature 52 °F 49 °F  
Max Temperature 64 °F 61 °F 80 °F (2017)
Min Temperature 39 °F 37 °F 17 °F (1964)
Degree Days  
Heating Degree Days 13 16  
Month to date heating degree days 110 115  
Since 1 July heating degree days 332 400  
Cooling Degree Days 0 0  
Month to date cooling degree days 0 0  
Year to date cooling degree days 416 351  
Growing Degree Days 2 (Base 50)    
Moisture  
Dew Point 47 °F    
Average Humidity 77    
Maximum Humidity 100    
Minimum Humidity 53    
Precipitation  
Precipitation T in 0.11 in 2.41 in (2005)
Month to date precipitation 1.42 0.93  
Year to date precipitation 32.27 30.12  
Sea Level Pressure  
Sea Level Pressure 30.27 in    
Wind  
Wind Speed 4 mph (North)    
Max Wind Speed 14 mph    
Max Gust Speed 17 mph    
Visibility 5 miles    
Events Fog , Rain    
T = Trace of Precipitation, MM = Missing Value Source: NWS Daily Summary

Daily Weather History Graph

Daily Weather History Graph

Search for Another Location

Airport or City:

Astronomy

Oct. 08, 2019 Rise Set
Actual Time 6:59 AM EDT 6:23 PM EDT
Civil Twilight 6:31 AM EDT 6:52 PM EDT
Nautical Twilight 5:58 AM EDT 7:25 PM EDT
Astronomical Twilight 5:24 AM EDT 7:58 PM EDT
Moon 4:31 PM EDT (10/8) 1:35 AM EDT (10/8)
Length of Visible Light 12h 21m
Length of Day
11h 23m
Waxing Gibbous, 77% of the Moon is Illuminated
Oct 8
Waxing Gibbous
Oct 13
Full
Oct 21
Last Quarter
Oct 27
New
Nov 4
First Quarter

Hourly Weather History & Observations

Time (EDT) Temp. Windchill Dew Point Humidity Pressure Visibility Wind Dir Wind Speed Gust Speed Precip Events Conditions
12:22 AM 52.0 °F - 51.1 °F 97% 30.18 in 1.8 mi Calm Calm - N/A   Clear
12:53 AM 52.0 °F - 51.1 °F 97% 30.19 in 3.0 mi SW 4.6 mph - N/A   Clear
1:38 AM 53.1 °F - 51.1 °F 93% 30.20 in 2.5 mi East 4.6 mph - N/A   Partly Cloudy
1:50 AM 53.6 °F - 51.8 °F 94% 30.20 in 5.0 mi South 4.6 mph - N/A   Mostly Cloudy
1:53 AM 53.1 °F - 52.0 °F 96% 30.21 in 7.0 mi South 4.6 mph - N/A   Mostly Cloudy
2:33 AM 52.0 °F - 51.1 °F 97% 30.20 in 5.0 mi Calm Calm - N/A   Overcast
2:53 AM 52.0 °F - 51.1 °F 97% 30.22 in 3.0 mi Calm Calm - N/A   Overcast
3:02 AM 51.1 °F - 50.0 °F 96% 30.21 in 1.8 mi Calm Calm - N/A   Overcast
3:30 AM 51.1 °F - 51.1 °F 100% 30.21 in 0.5 mi Calm Calm - N/A Fog Fog
3:39 AM 52.0 °F - 51.1 °F 97% 30.21 in 0.5 mi Calm Calm - N/A Fog Fog
3:51 AM 51.8 °F - 51.8 °F 100% 30.21 in 0.2 mi Calm Calm - N/A Fog Fog
3:53 AM 52.0 °F - 51.1 °F 97% 30.22 in 0.2 mi Calm Calm - N/A Fog Fog
4:53 AM 51.1 °F - 51.1 °F 100% 30.25 in 0.2 mi Calm Calm - N/A Fog Fog
5:53 AM 51.1 °F - 50.0 °F 96% 30.27 in 0.2 mi Calm Calm - N/A Fog Fog
6:53 AM 48.9 °F - 48.9 °F 100% 30.28 in 0.5 mi West 3.5 mph - N/A Fog Fog
7:08 AM 48.9 °F - 48.0 °F 97% 30.28 in 1.5 mi NE 4.6 mph - N/A   Mostly Cloudy
7:14 AM 48.9 °F - 48.0 °F 97% 30.28 in 3.0 mi Calm Calm - N/A   Mostly Cloudy
7:25 AM 48.0 °F - 48.0 °F 100% 30.29 in 8.0 mi Calm Calm - N/A   Partly Cloudy
7:34 AM 48.0 °F - 46.9 °F 96% 30.29 in 1.5 mi Calm Calm - N/A   Partly Cloudy
7:38 AM 48.0 °F - 46.9 °F 96% 30.29 in 0.8 mi Calm Calm - N/A   Mist
7:48 AM 46.4 °F - 46.4 °F 100% 30.30 in 0.2 mi Calm Calm - N/A Fog Fog
7:53 AM 46.9 °F - 46.0 °F 97% 30.31 in 0.2 mi Calm Calm - N/A Fog Fog
8:09 AM 48.0 °F - 46.9 °F 96% 30.30 in 1.0 mi Calm Calm - N/A   Mist
8:13 AM 48.0 °F - 46.9 °F 96% 30.30 in 2.5 mi Calm Calm - N/A   Scattered Clouds
8:20 AM 48.9 °F - 48.0 °F 97% 30.31 in 6.0 mi Calm Calm - N/A   Partly Cloudy
8:53 AM 51.1 °F - 48.0 °F 89% 30.32 in 10.0 mi North 3.5 mph - N/A   Clear
9:53 AM 55.0 °F - 46.0 °F 72% 30.33 in 10.0 mi North 9.2 mph - N/A   Clear
10:53 AM 57.9 °F - 46.9 °F 67% 30.32 in 10.0 mi NNE 5.8 mph - N/A   Clear
11:53 AM 60.1 °F - 48.0 °F 64% 30.32 in 10.0 mi Variable 6.9 mph - N/A   Mostly Cloudy
12:19 PM 60.1 °F - 46.9 °F 62% 30.31 in 10.0 mi NE 6.9 mph - N/A   Mostly Cloudy
12:53 PM 61.0 °F - 46.0 °F 58% 30.32 in 10.0 mi Calm Calm - N/A   Scattered Clouds
1:53 PM 61.0 °F - 44.1 °F 54% 30.30 in 10.0 mi North 8.1 mph - 0.00 in Rain Light Rain
2:53 PM 62.1 °F - 44.1 °F 52% 30.28 in 10.0 mi NNW 12.7 mph - 0.00 in   Clear
3:53 PM 60.1 °F - 45.0 °F 57% 30.27 in 10.0 mi NNW 8.1 mph - N/A   Clear
4:53 PM 57.9 °F - 44.1 °F 60% 30.28 in 10.0 mi ENE 9.2 mph - N/A   Clear
5:53 PM 59.0 °F - 43.0 °F 55% 30.29 in 10.0 mi NE 9.2 mph - N/A   Clear
6:53 PM 48.0 °F - 45.0 °F 89% 30.31 in - North - - N/A   Clear
7:53 PM 43.0 °F 41.3 °F 43.0 °F 100% 30.33 in - NW 3.5 mph - N/A   Clear
8:53 PM 44.1 °F 42.5 °F 44.1 °F 100% 30.32 in - NNW 3.5 mph - N/A   Clear
9:53 PM 43.0 °F 41.3 °F 42.1 °F 97% 30.32 in - North 3.5 mph - N/A   Clear
10:53 PM 43.0 °F - 41.0 °F 93% 30.34 in - Calm Calm - N/A   Clear
11:53 PM 41.0 °F - 37.9 °F 89% 30.35 in - Calm Calm - N/A   Clear